Time,TemperatureF,DewpointF,PressureIn,WindDirection,WindDirectionDegrees,WindSpeedMPH,WindSpeedGustMPH,Humidity,HourlyPrecipIn,Conditions,Clouds,dailyrainin,SoftwareType,DateUTC
2013-07-25 00:00:00,71.5,65.7,29.82,SW,225,2.0,12.0,82,0.00,,OVC,0.00,VWS V14.01,2013-07-25 04:00:00,
2013-07-25 01:00:00,70.9,66.2,29.83,SW,225,2.0,11.0,85,0.00,,OVC,0.00,VWS V14.01,2013-07-25 05:00:00,
2013-07-25 02:00:00,70.1,65.4,29.83,WSW,248,2.0,11.0,85,0.00,,OVC,0.00,VWS V14.01,2013-07-25 06:00:00,
2013-07-25 03:00:00,69.1,65.1,29.81,West,270,2.0,10.0,87,0.00,,OVC,0.00,VWS V14.01,2013-07-25 07:00:00,
2013-07-25 04:00:00,68.5,64.8,29.81,West,270,1.0,9.0,88,0.00,,OVC,0.00,VWS V14.01,2013-07-25 08:00:00,
2013-07-25 05:00:00,67.5,64.8,29.82,West,270,2.0,9.0,91,0.00,,OVC,0.00,VWS V14.01,2013-07-25 09:00:00,
2013-07-25 06:00:00,67.9,64.9,29.83,NNW,338,2.0,7.0,90,0.00,,OVC,0.00,VWS V14.01,2013-07-25 10:00:00,
2013-07-25 07:00:00,67.6,64.2,29.84,North,0,2.0,5.0,89,0.00,,OVC,0.00,VWS V14.01,2013-07-25 11:00:00,
2013-07-25 08:00:00,67.2,64.2,29.86,North,0,2.0,5.0,90,0.00,,OVC,0.00,VWS V14.01,2013-07-25 12:00:00,
2013-07-25 09:00:00,68.1,65.4,29.88,West,270,1.0,7.0,91,0.00,,OVC,0.00,VWS V14.01,2013-07-25 13:00:00,
2013-07-25 10:00:00,69.4,65.7,29.90,WSW,248,1.0,7.0,88,0.00,,OVC,0.00,VWS V14.01,2013-07-25 14:00:00,
2013-07-25 11:00:00,70.8,65.7,29.90,WSW,248,1.0,6.0,84,0.00,,OVC,0.00,VWS V14.01,2013-07-25 15:00:00,
2013-07-25 12:00:00,72.6,68.2,29.91,WSW,248,0.0,2.0,86,0.00,,OVC,0.00,VWS V14.01,2013-07-25 16:00:00,
2013-07-25 13:00:00,73.5,68.7,29.91,WSW,248,0.0,4.0,85,0.00,,OVC,0.00,VWS V14.01,2013-07-25 17:00:00,
2013-07-25 14:00:00,77.3,70.3,29.91,WSW,248,1.0,5.0,79,0.00,,OVC,0.00,VWS V14.01,2013-07-25 18:00:00,
2013-07-25 15:00:00,78.0,70.6,29.91,West,270,1.0,6.0,78,0.00,,OVC,0.00,VWS V14.01,2013-07-25 19:00:00,
2013-07-25 16:00:00,77.7,70.3,29.90,West,270,0.0,5.0,78,0.00,,OVC,0.00,VWS V14.01,2013-07-25 20:00:00,
2013-07-25 17:00:00,74.7,69.6,29.91,WSW,248,0.0,5.0,84,0.00,,OVC,0.00,VWS V14.01,2013-07-25 21:00:00,
2013-07-25 18:00:00,75.2,70.0,29.90,WSW,248,0.0,1.0,84,0.00,,OVC,0.00,VWS V14.01,2013-07-25 22:00:00,
2013-07-25 19:00:00,72.1,69.0,29.92,WSW,248,0.0,1.0,90,0.00,,OVC,0.00,VWS V14.01,2013-07-25 23:00:00,
2013-07-25 20:00:00,69.5,65.5,29.94,WSW,248,0.0,4.0,87,0.00,,OVC,0.00,VWS V14.01,2013-07-26 00:00:00,
2013-07-25 21:00:00,67.7,65.0,29.97,West,270,0.0,3.0,91,0.00,,OVC,0.00,VWS V14.01,2013-07-26 01:00:00,
2013-07-25 22:00:00,66.4,64.6,29.99,West,270,0.0,0.0,94,0.00,,OVC,0.00,VWS V14.01,2013-07-26 02:00:00,
2013-07-25 23:00:00,69.8,62.6,29.98,West,270,1.0,11.0,78,0.00,,OVC,0.00,VWS V14.01,2013-07-26 03:00:00,